Content
SEND FEEDBACK

Daily
Averages
Monthly
Summary
United Kingdom

CONINGSBY, ENGLAND


Home > Europe > United Kingdom > England
Elevation: 25 feet     Latitude: 53 05N     Longitude: 000 10W

WEATHER
 
SELECT A DAY
Number of Records: 150,470;   Date Range: 7/30/96 - 7/9/14
 
SHARE

PRINT THIS DATA

[ ← Previous Day ]
WEATHER ALMANAC - OCTOBER 18, 2013
[ Next Day → ]
[ °C ]   °F
Weather ElementAverageHighLow
Temperature51.7 °F57.2 °F (2:18 pm)44.6 °F (12:50 am)
Dewpoint50.9 °F55.4 °F (2:18 pm)44.6 °F (12:50 am)
Humidity96.9 %100 % (12:50 am)88 % (2:50 pm)
Barometer29.95 in30.01 in (3:04 am)29.80 in (10:50 pm)
Wind Speed7.1 mph13.8 mph (8:50 pm)
Weather ElementAverage
Visibility2.6 mi
Wind DirectionESE (114.6 °)

Weather ElementTotal
Precipitation---
Heating Degree Days14.1 (Base 65)
Growing Degree Days0.9 (Base 50)
Averaged from 41 records on October 18, 2013
WEATHER CONDITIONS BREAKOUT
WIND DIRECTION BREAKOUT
WEATHER BY HOUR - OCTOBER 18, 2013
[ °C ]   °F
Local TimeTemperatureDewpointHumidityBarometerVisibilityWind DirectionWind SpeedGust SpeedPrecipitationEventsConditions
12:50 AM45.0 °F45.0 °F100 %29.99 in0.0 miENE (70°)3.5 mphFogPatches of Fog
12:50 AM44.6 °F44.6 °F100 %29.98 in0.4 miENE (70°)3.5 mphFogPatches of Fog
1:50 AM46.4 °F46.4 °F100 %29.98 in0.4 miEast (90°)3.5 mphFogFog
2:50 AM46.4 °F44.6 °F93 %29.98 in0.4 miEast (100°)1.2 mphFogFog
3:04 AM44.6 °F44.6 °F100 %30.01 in1.6 miSouth (180°)1.2 mphFogFog
3:50 AM48.2 °F48.2 °F100 %29.98 in4.3 miNE (50°)4.6 mphMostly Cloudy
3:50 AM48.0 °F47.0 °F97 %30.00 in4.0 miNE (50°)4.6 mphFogLight Fog
4:50 AM48.2 °F48.2 °F100 %29.98 in3.7 miEast (90°)4.6 mphMostly Cloudy
5:50 AM48.2 °F48.2 °F100 %29.98 in3.1 miENE (70°)2.3 mphMostly Cloudy
6:50 AM46.4 °F46.4 °F100 %29.98 in1.9 miEast (80°)6.9 mphMostly Cloudy
6:50 AM46.0 °F46.0 °F100 %29.99 in2.0 miEast (80°)6.9 mphMist
7:36 AM48.2 °F48.2 °F100 %29.98 in0.9 miSE (140°)3.5 mphMostly Cloudy
7:50 AM48.2 °F48.2 °F100 %29.98 in0.5 miSE (140°)3.5 mphFogPatches of Fog
8:09 AM50.0 °F50.0 °F100 %29.98 in0.9 miESE (110°)4.6 mphMostly Cloudy
8:26 AM50.0 °F50.0 °F100 %29.98 in0.9 miEast (100°)4.6 mphMostly Cloudy
8:50 AM50.0 °F50.0 °F100 %30.01 in0.9 miESE (110°)3.5 mphMostly Cloudy
9:15 AM50.0 °F50.0 °F100 %30.01 in0.4 miESE (110°)4.6 mphFogFog
9:50 AM51.0 °F51.0 °F99 %30.01 in0.0 miEast (100°)5.8 mphFogPartial Fog
9:50 AM51.8 °F50.0 °F94 %30.01 in0.2 miEast (100°)5.8 mphFogFog
10:50 AM51.8 °F51.8 °F100 %29.98 in0.9 miESE (110°)6.9 mphMostly Cloudy
11:10 AM53.6 °F53.6 °F100 %29.98 in1.1 miESE (110°)8.1 mphOvercast
11:39 AM53.6 °F53.6 °F100 %29.98 in1.1 miSE (130°)9.2 mphOvercast
11:50 AM53.6 °F53.6 °F100 %30.01 in1.1 miESE (120°)9.2 mphOvercast
12:25 PM53.6 °F53.6 °F100 %29.98 in1.6 miESE (120°)9.2 mphMostly Cloudy
12:50 PM53.6 °F53.6 °F100 %29.98 in2.5 miSE (130°)10.4 mphOvercast
1:00 PM54.0 °F53.0 °F95 %29.99 in2.0 miSE (130°)10.4 mphMist
1:50 PM55.4 °F53.6 °F94 %29.95 in2.8 miSE (130°)9.2 mphHaze
2:18 PM57.2 °F55.4 °F94 %29.95 in4.3 miSE (140°)8.1 mphHaze
2:50 PM57.2 °F53.6 °F88 %29.95 in4.3 miSSE (160°)9.2 mphHaze
3:50 PM56.0 °F54.0 °F89 %29.94 in5.0 miSSE (150°)6.9 mphHaze
3:50 PM55.4 °F53.6 °F94 %29.92 in5.0 miSSE (150°)6.9 mphHaze
4:50 PM57.2 °F53.6 °F88 %29.89 in6.2 miSE (130°)9.2 mphOvercast
5:50 PM55.4 °F53.6 °F94 %29.89 in5.0 miESE (120°)8.1 mphHaze
6:50 PM56.0 °F54.0 °F90 %29.89 in5.0 miSE (130°)9.2 mphHaze
6:50 PM55.4 °F53.6 °F94 %29.89 in5.0 miSE (130°)9.2 mphHaze
7:50 PM53.6 °F53.6 °F100 %29.86 in5.0 miESE (120°)11.5 mphHaze
8:50 PM55.4 °F53.6 °F94 %29.83 in5.0 miSE (130°)13.8 mphHaze
9:50 PM54.0 °F53.0 °F95 %29.85 in4.0 miSE (130°)12.7 mphRainLight Rain
9:50 PM55.4 °F53.6 °F94 %29.83 in4.3 miSE (130°)12.7 mphHaze
10:50 PM55.4 °F53.6 °F94 %29.80 in4.3 miESE (120°)13.8 mphHaze
11:50 PM55.4 °F53.6 °F94 %29.80 in4.3 miSE (140°)9.2 mphHaze
Hourly data recorded from EGXC, located miles away from Coningsby, England







STORIES FROM OUR PARTNERS